Weather History for KMSO - April, 2013

Change the Weather History Date:

Friday, April 26, 2013

  Actual Average Record
Temperature  
Mean Temperature 53 °F 48 °F  
Max Temperature 72 °F 61 °F 84 °F (1916)
Min Temperature 34 °F 34 °F 23 °F (1962)
Degree Days  
Heating Degree Days 12 17  
Month to date heating degree days 590 515  
Since 1 July heating degree days 6406 6698  
Cooling Degree Days 0 0  
Month to date cooling degree days 0 0  
Year to date cooling degree days 0 0  
Growing Degree Days 3 (Base 50)    
Moisture  
Dew Point 31 °F    
Average Humidity 54    
Maximum Humidity 85    
Minimum Humidity 22    
Precipitation  
Precipitation 0.00 in 0.04 in 0.63 in (2012)
Month to date precipitation 0.58 1.06  
Year to date precipitation 2.64 3.61  
Snow  
Snow 0.00 in - - ()
Month to date snowfall 3.5  
Year to date snowfall 26.1  
Since 1 July snowfall 47.2  
Snow Depth 0.00 in    
Sea Level Pressure  
Sea Level Pressure 30.14 in    
Wind  
Wind Speed 5 mph (WNW)    
Max Wind Speed 24 mph    
Max Gust Speed 29 mph    
Visibility 8 miles    
Events      
T = Trace of Precipitation, MM = Missing Value Source: NWS Daily Summary

Daily Weather History Graph

Daily Weather History Graph

Search for Another Location

Airport or City:

Trip Planner

Search our weather history database for the weather conditions in past years. The results will help you decide how hot, cold, wet, or windy it might be!

Date:

Astronomy

Apr. 26, 2013 Rise Set
Actual Time 6:28 AM MDT 8:40 PM MDT
Civil Twilight 5:55 AM MDT 9:13 PM MDT
Nautical Twilight 5:14 AM MDT 9:55 PM MDT
Astronomical Twilight 4:28 AM MDT 10:41 PM MDT
Moon 10:13 PM MDT (4/26) 6:55 AM MDT (4/26)
Length of Visible Light 15h 18m
Length of Day
14h 11m
Full, 99% of the Moon is Illuminated
Apr 26
Full
May 2
Last Quarter
May 9
New
May 17
First Quarter
May 24
Full

Hourly Weather History & Observations

Time (MDT) Temp. Windchill Dew Point Humidity Pressure Visibility Wind Dir Wind Speed Gust Speed Precip Events Conditions
12:18 AM 46.4 °F - 30.2 °F 53% 30.08 in 2.0 mi Calm Calm - N/A   Haze
12:44 AM 44.6 °F - 30.2 °F 57% 30.09 in 1.2 mi Calm Calm - N/A   Haze
12:50 AM 44.6 °F - 30.2 °F 57% 30.09 in 2.0 mi Calm Calm - N/A   Haze
12:53 AM 42.8 °F - 30.2 °F 61% 30.09 in 3.0 mi Calm Calm - N/A   Haze
1:53 AM 41.0 °F - 30.0 °F 65% 30.11 in 8.0 mi Calm Calm - N/A   Clear
2:53 AM 41.0 °F - 30.0 °F 65% 30.12 in 6.0 mi Calm Calm - N/A   Haze
2:59 AM 39.2 °F - 30.2 °F 70% 30.12 in 1.8 mi Calm Calm - N/A   Haze
3:08 AM 41.0 °F 39.0 °F 30.2 °F 65% 30.12 in 3.0 mi ENE 3.5 mph - N/A   Haze
3:23 AM 39.2 °F - 30.2 °F 70% 30.12 in 1.8 mi Calm Calm - N/A   Haze
3:33 AM 39.2 °F - 30.2 °F 70% 30.12 in 3.0 mi Calm Calm - N/A   Haze
3:53 AM 37.9 °F 35.5 °F 30.0 °F 73% 30.13 in 3.0 mi North 3.5 mph - N/A   Haze
4:00 AM 37.4 °F - 30.2 °F 75% 30.13 in 2.5 mi Calm Calm - N/A   Haze
4:13 AM 39.2 °F - 30.2 °F 70% 30.14 in 3.0 mi Calm Calm - N/A   Haze
4:53 AM 37.9 °F 35.5 °F 28.9 °F 70% 30.15 in 8.0 mi East 3.5 mph - N/A   Clear
5:53 AM 37.9 °F 34.4 °F 28.9 °F 70% 30.17 in 10.0 mi SE 4.6 mph - N/A   Clear
6:53 AM 37.9 °F - 28.9 °F 70% 30.19 in 8.0 mi Calm Calm - N/A   Clear
7:53 AM 37.9 °F - 33.1 °F 83% 30.21 in 10.0 mi Calm Calm - N/A   Clear
8:53 AM 45.0 °F - 30.9 °F 58% 30.22 in 10.0 mi Calm Calm - N/A   Clear
9:53 AM 48.9 °F - 32.0 °F 52% 30.21 in 10.0 mi Variable 4.6 mph - N/A   Clear
10:53 AM 54.0 °F - 32.0 °F 43% 30.20 in 10.0 mi ESE 4.6 mph - N/A   Clear
11:53 AM 60.1 °F - 32.0 °F 35% 30.19 in 10.0 mi East 3.5 mph - N/A   Clear
12:53 PM 63.0 °F - 32.0 °F 31% 30.17 in 10.0 mi Calm Calm - N/A   Clear
1:53 PM 66.0 °F - 33.1 °F 29% 30.14 in 10.0 mi Calm Calm - N/A   Clear
2:53 PM 71.1 °F - 32.0 °F 24% 30.12 in 10.0 mi West 18.4 mph 25.3 mph N/A   Partly Cloudy
3:53 PM 72.0 °F - 32.0 °F 23% 30.12 in 10.0 mi NW 13.8 mph 24.2 mph N/A   Clear
4:53 PM 71.1 °F - 30.9 °F 23% 30.12 in 10.0 mi NW 13.8 mph 25.3 mph N/A   Clear
5:53 PM 71.1 °F - 30.9 °F 23% 30.12 in 10.0 mi WNW 15.0 mph 24.2 mph N/A   Clear
6:53 PM 68.0 °F - 32.0 °F 26% 30.13 in 10.0 mi West 13.8 mph - N/A   Clear
7:53 PM 64.9 °F - 34.0 °F 32% 30.14 in 10.0 mi West 10.4 mph - N/A   Clear
8:53 PM 57.9 °F - 34.0 °F 41% 30.15 in 10.0 mi West 6.9 mph - N/A   Clear
9:53 PM 57.0 °F - 32.0 °F 39% 30.17 in 10.0 mi WSW 5.8 mph - N/A   Clear
10:53 PM 48.0 °F - 33.1 °F 56% 30.18 in 10.0 mi West 3.5 mph - N/A   Clear
11:53 PM 50.0 °F - 34.0 °F 54% 30.15 in 10.0 mi Calm Calm - N/A   Clear